Miscellaneous Local Product
Issued by NWS Hastings, NE

Home | Current Version | Previous Version | Graphics & Text | Print | Product List | Glossary On
Versions: 1 2 3 4 5 6 7 8 9 10 11 12 13 14 15 16 17 18 19 20 21 22 23 24 25 26 27 28 29 30 31 32 33 34 35 36 37 38 39 40 41 42 43 44 45 46 47 48 49 50
000
AXUS43 KGID 180002
MISGRI

GID CWA HOURLY WEATHER ROUNDUP
NATIONAL WEATHER SERVICE HASTINGS NE
700 PM CDT FRI APR 17 2015

NOTE: "FAIR" INDICATES FEW OR NO CLOUDS BELOW 12,000 FEET WITH NO
SIGNIFICANT WEATHER AND/OR OBSTRUCTIONS TO VISIBILITY.

...SOUTH CENTRAL NEBRASKA...

CITY           SKY/WX    TMP DP  RH WIND       PRES   REMARKS
GRAND ISLAND   PTSUNNY   65  54  67 SE8       30.00R
HASTINGS       MOSUNNY   67  54  63 E14       29.98S
KEARNEY        PTSUNNY   63  55  77 E13       29.99S
ORD            PTSUNNY   62  56  80 N9        30.00F
YORK           PTSUNNY   68  55  64 SE6       30.00R
AURORA         PTSUNNY   69  54  59 SE16      29.99S
LEXINGTON      MOSUNNY   64  57  79 E13       29.98S
HOLDREGE       MOSUNNY   67  53  62 SE13      29.98S
HEBRON         CLOUDY    67  57  70 NE5       29.98S

...NEBRASKA PANHANDLE...

CITY           SKY/WX    TMP DP  RH WIND       PRES   REMARKS
CHADRON        LGT RAIN  47  44  90 NE12      30.09S FOG
ALLIANCE       LGT RAIN  49  47  93 NE18      30.02F
SCOTTSBLUFF    HVY RAIN  47  47 100 NE7       30.06R FOG
SIDNEY         TSTM      51  48  89 NE8       29.99R

...WESTERN AND NORTH CENTRAL NEBRASKA...

CITY           SKY/WX    TMP DP  RH WIND       PRES   REMARKS
VALENTINE      LGT RAIN  54  52  93 NE9       30.07F
AINSWORTH      CLOUDY    55  53  94 NE13      30.05F
ONEILL         CLOUDY    64  49  57 N12       30.05F
BROKEN BOW     PTSUNNY   61  56  83 NE12      30.00F
IMPERIAL         N/A     61  51  70 E7        29.94S
NORTH PLATTE   PTSUNNY   61  54  77 E15       29.98F
MCCOOK         MOSUNNY   69  51  52 E13       29.93F

...EASTERN NEBRASKA...

CITY           SKY/WX    TMP DP  RH WIND       PRES   REMARKS
NORFOLK        NOT AVBL
SO SIOUX CITY  CLOUDY    74  45  35 NE7       30.00S
TEKAMAH        CLOUDY    76  50  40 E8        29.98S
COLUMBUS       CLOUDY    72  50  46 E8        30.01S
ALBION         PTSUNNY   70  50  49 E7        30.01S
OMAHA EPPLEY   CLOUDY    75  52  44 E5        29.97F
OFFUTT AFB     CLOUDY    72  55  54 E6        29.97S
MILLARD        CLOUDY    74  53  47 CALM      29.98S
LINCOLN        CLOUDY    72  52  49 SE8       29.98S
NEBRASKA CITY  CLOUDY    72  48  42 E3        29.99R
BEATRICE       CLOUDY    68  56  67 E5        29.99R
FALLS CITY     CLOUDY    72  56  57 CALM      29.96S

...NORTHERN KANSAS...

CITY           SKY/WX    TMP DP  RH WIND       PRES   REMARKS
GOODLAND       LGT RAIN  57  43  59 E10       29.91S
HILL CITY      MOSUNNY   69  50  50 SE10      29.92F
NORTON         PTCLDY    68  48  49 E10       29.93S
PHILLIPSBURG   MOSUNNY   73  54  49 E10       29.94S
SMITH CENTER   SUNNY     72  54  53 E16       29.94F
BELOIT         SUNNY     70  52  52 E9        29.92F
HAYS           MOSUNNY   68  50  52 SE14      29.93S
RUSSELL        PTSUNNY   70  54  56 SE14      29.92S
CONCORDIA      CLOUDY    71  56  58 E8        29.94F
SALINA         PTSUNNY   73  56  54 SE8       29.94F
TOPEKA         CLOUDY    72  58  61 SE7       29.96F



USA.gov is the U.S. government's official web portal to all federal, state and local government web resources and services.